Location: Santa Cristina
(46.5667°N, 11.7167°E)
Time: 17:19:10
(UTC+00:00)

Cosmos 923 Rocket - Pass Details

Date: 21 April 2021
Orbit: 759 x 785 km, 74.0° (Epoch: 11 May)

Event Time Altitude Azimuth Distance (km) Brightness Sun altitude
Rises 01:05:11 0° 337° (NNW) 3,231 7.7 -26.3°
Reaches altitude 10° 01:07:33 10° 338° (NNW) 2,303 6.9 -26.1°
Maximum altitude 01:12:48 89° 252° (WSW) 771 3.9 -25.6°
Enters shadow 01:13:15 75° 162° (SSE) 793 3.8 -25.5°
